Time,TemperatureF,DewpointF,PressureIn,WindDirection,WindDirectionDegrees,WindSpeedMPH,WindSpeedGustMPH,Humidity,HourlyPrecipIn,Conditions,Clouds,dailyrainin,SoftwareType,DateUTC
2015-04-26 00:01:00,48.9,41.0,30.26,East,82,0.0,0.0,74,0.00,,SCT036,0.39,VWS V15.00,2015-04-26 07:01:00,
2015-04-26 00:07:00,48.9,41.0,30.26,East,82,0.0,0.0,74,0.00,,SCT036,0.39,VWS V15.00,2015-04-26 07:07:00,
2015-04-26 00:12:00,48.8,40.9,30.05,East,82,0.0,0.0,74,0.00,,SCT036,0.00,VWS V15.00,2015-04-26 07:12:00,
2015-04-26 00:17:00,48.7,40.8,30.05,East,82,0.0,0.0,74,0.00,,SCT036,0.00,VWS V15.00,2015-04-26 07:17:00,
2015-04-26 00:22:00,48.7,40.8,30.05,East,82,0.0,0.0,74,0.00,,SCT036,0.00,VWS V15.00,2015-04-26 07:22:00,
2015-04-26 00:27:00,48.6,40.7,30.05,East,82,0.0,0.0,74,0.00,,SCT036,0.00,VWS V15.00,2015-04-26 07:27:00,
2015-04-26 00:32:00,48.5,40.6,30.05,East,82,0.0,0.0,74,0.00,,SCT036,0.00,VWS V15.00,2015-04-26 07:32:00,
2015-04-26 00:37:00,48.3,40.4,30.05,East,82,0.0,0.0,74,0.00,,SCT036,0.00,VWS V15.00,2015-04-26 07:37:00,
2015-04-26 00:42:00,48.2,40.3,30.05,East,82,0.0,0.0,74,0.00,,SCT036,0.00,VWS V15.00,2015-04-26 07:42:00,
2015-04-26 00:47:00,48.1,39.9,30.05,East,82,0.0,0.0,73,0.00,,SCT036,0.00,VWS V15.00,2015-04-26 07:47:00,
2015-04-26 00:52:00,48.1,39.9,30.05,East,82,0.0,0.0,73,0.00,,SCT036,0.00,VWS V15.00,2015-04-26 07:52:00,
2015-04-26 00:57:00,48.1,39.9,30.05,East,82,0.0,0.0,73,0.00,,SCT036,0.00,VWS V15.00,2015-04-26 07:57:00,
2015-04-26 01:02:00,48.1,39.9,30.05,East,82,0.0,0.0,73,0.00,,SCT036,0.00,VWS V15.00,2015-04-26 08:02:00,
2015-04-26 01:07:00,48.1,39.9,30.05,East,82,0.0,0.0,73,0.00,,SCT036,0.00,VWS V15.00,2015-04-26 08:07:00,
2015-04-26 01:12:00,48.2,40.0,30.05,East,82,0.0,0.0,73,0.00,,SCT036,0.00,VWS V15.00,2015-04-26 08:12:00,
2015-04-26 01:17:00,48.1,39.9,30.05,East,82,0.0,0.0,73,0.00,,SCT036,0.00,VWS V15.00,2015-04-26 08:17:00,
2015-04-26 01:22:00,48.1,39.9,30.06,East,82,0.0,0.0,73,0.00,,SCT036,0.00,VWS V15.00,2015-04-26 08:22:00,
2015-04-26 01:27:00,48.0,39.8,30.06,East,82,0.0,0.0,73,0.00,,SCT036,0.00,VWS V15.00,2015-04-26 08:27:00,
2015-04-26 01:32:00,48.0,39.8,30.05,East,82,0.0,0.0,73,0.00,,SCT036,0.00,VWS V15.00,2015-04-26 08:32:00,
2015-04-26 01:37:00,47.9,39.7,30.05,East,82,0.0,0.0,73,0.00,,SCT036,0.00,VWS V15.00,2015-04-26 08:37:00,
2015-04-26 01:42:00,47.8,39.6,30.05,East,82,0.0,0.0,73,0.00,,SCT036,0.00,VWS V15.00,2015-04-26 08:42:00,
2015-04-26 01:47:00,47.8,39.6,30.05,East,82,0.0,0.0,73,0.00,,SCT036,0.00,VWS V15.00,2015-04-26 08:47:00,
2015-04-26 01:52:00,47.6,39.4,30.05,East,82,0.0,0.0,73,0.00,,SCT036,0.00,VWS V15.00,2015-04-26 08:52:00,
2015-04-26 01:57:00,47.6,39.4,30.05,East,82,0.0,0.0,73,0.00,,SCT036,0.00,VWS V15.00,2015-04-26 08:57:00,
2015-04-26 02:02:00,47.6,39.4,30.05,East,82,0.0,0.0,73,0.00,,SCT036,0.00,VWS V15.00,2015-04-26 09:02:00,
2015-04-26 02:07:00,47.8,39.2,30.05,East,82,0.0,0.0,72,0.00,,SCT036,0.00,VWS V15.00,2015-04-26 09:07:00,
2015-04-26 02:12:00,47.8,39.2,30.05,ENE,69,0.0,0.0,72,0.00,,SCT036,0.00,VWS V15.00,2015-04-26 09:12:00,
2015-04-26 02:17:00,47.9,39.3,30.05,ENE,69,0.0,0.0,72,0.00,,SCT036,0.00,VWS V15.00,2015-04-26 09:17:00,
2015-04-26 02:22:00,47.9,39.3,30.05,ENE,69,0.0,0.0,72,0.00,,SCT036,0.00,VWS V15.00,2015-04-26 09:22:00,
2015-04-26 02:27:00,47.8,39.2,30.05,ENE,69,0.0,0.0,72,0.00,,SCT036,0.00,VWS V15.00,2015-04-26 09:27:00,
2015-04-26 02:32:00,47.8,39.2,30.05,ENE,69,0.0,0.0,72,0.00,,SCT036,0.00,VWS V15.00,2015-04-26 09:32:00,
2015-04-26 02:37:00,47.8,39.2,30.05,ENE,69,0.0,0.0,72,0.00,,SCT036,0.00,VWS V15.00,2015-04-26 09:37:00,
2015-04-26 02:42:00,47.8,39.2,30.05,ENE,69,0.0,0.0,72,0.00,,SCT036,0.00,VWS V15.00,2015-04-26 09:42:00,
2015-04-26 02:47:00,47.8,39.2,30.06,ENE,69,0.0,0.0,72,0.00,,SCT036,0.00,VWS V15.00,2015-04-26 09:47:00,
2015-04-26 02:52:00,47.8,39.2,30.06,ENE,72,1.0,2.0,72,0.00,,SCT036,0.00,VWS V15.00,2015-04-26 09:52:00,
2015-04-26 03:02:00,47.9,39.7,30.05,ENE,72,0.0,2.0,73,0.00,,SCT036,0.00,VWS V15.00,2015-04-26 10:02:00,
2015-04-26 03:07:00,47.9,39.7,30.05,ENE,72,0.0,0.0,73,0.00,,SCT036,0.00,VWS V15.00,2015-04-26 10:07:00,
2015-04-26 03:12:00,47.9,40.0,30.05,ENE,72,0.0,1.0,74,0.00,,SCT036,0.00,VWS V15.00,2015-04-26 10:12:00,
2015-04-26 03:17:00,47.9,40.0,30.05,ENE,72,0.0,1.0,74,0.00,,SCT036,0.00,VWS V15.00,2015-04-26 10:17:00,
2015-04-26 03:22:00,47.8,39.9,30.05,ENE,72,0.0,1.0,74,0.00,,SCT036,0.00,VWS V15.00,2015-04-26 10:22:00,
2015-04-26 03:27:00,47.9,40.0,30.05,NNE,22,0.0,3.0,74,0.00,,SCT036,0.00,VWS V15.00,2015-04-26 10:27:00,
2015-04-26 03:32:00,48.0,40.5,30.05,East,86,0.0,3.0,75,0.00,,SCT036,0.00,VWS V15.00,2015-04-26 10:32:00,
2015-04-26 03:37:00,48.0,40.1,30.05,East,86,0.0,0.0,74,0.00,,SCT036,0.00,VWS V15.00,2015-04-26 10:37:00,
2015-04-26 03:42:00,48.0,40.5,30.05,East,86,0.0,0.0,75,0.00,,SCT036,0.00,VWS V15.00,2015-04-26 10:42:00,
2015-04-26 03:47:00,48.0,40.5,30.05,NNE,24,0.0,0.0,75,0.00,,SCT036,0.00,VWS V15.00,2015-04-26 10:47:00,
2015-04-26 03:52:00,48.1,40.6,30.05,NNE,24,0.0,2.0,75,0.00,,SCT036,0.00,VWS V15.00,2015-04-26 10:52:00,
2015-04-26 03:57:00,48.1,40.6,30.05,NNE,24,0.0,2.0,75,0.00,,SCT036,0.00,VWS V15.00,2015-04-26 10:57:00,
2015-04-26 04:02:00,48.2,40.7,30.05,NNE,24,0.0,2.0,75,0.00,,SCT036,0.00,VWS V15.00,2015-04-26 11:02:00,
2015-04-26 04:07:00,48.2,40.7,30.06,ENE,63,0.0,1.0,75,0.00,,SCT036,0.00,VWS V15.00,2015-04-26 11:07:00,
2015-04-26 04:12:00,48.2,40.7,30.06,ENE,63,0.0,1.0,75,0.00,,SCT036,0.00,VWS V15.00,2015-04-26 11:12:00,
2015-04-26 04:17:00,48.0,40.5,30.06,ENE,63,0.0,1.0,75,0.00,,SCT036,0.00,VWS V15.00,2015-04-26 11:17:00,
2015-04-26 04:22:00,47.8,40.3,30.06,ENE,63,0.0,1.0,75,0.00,,SCT036,0.00,VWS V15.00,2015-04-26 11:22:00,
2015-04-26 04:27:00,47.7,40.2,30.06,ENE,63,0.0,1.0,75,0.00,,SCT036,0.00,VWS V15.00,2015-04-26 11:27:00,
2015-04-26 04:32:00,47.6,40.1,30.06,ENE,63,0.0,1.0,75,0.00,,SCT036,0.00,VWS V15.00,2015-04-26 11:32:00,